DLH62M KPHX-KSAN

Flight info

Callsign DLH62M
Flight time 0h 57m
Altitude 30000
Route FYRBD1 MOHAK J2 HOGGZ LUCKI1
Aircraft A320/M-SDE3FGHIRWY/LB1

Departure

Time 2026-05-04 13:20
Airport Phoenix Sky Harbor International Airport (KPHX)

Arrival

Time 2026-05-04 14:18
Airport San Diego International Airport (KSAN)
Time Latitude Longitude Altitude Speed Heading
2026-05-04 13:04 33.43400 -112.00927 1173 ft 0 kts 357°
2026-05-04 13:15 33.43374 -112.00926 1186 ft 3 kts 11°
2026-05-04 13:15 33.43359 -112.00928 1187 ft 2 kts 54°
2026-05-04 13:15 33.43357 -112.00940 1189 ft 2 kts 101°
2026-05-04 13:16 33.43355 -112.00953 1189 ft 2 kts 98°
2026-05-04 13:16 33.43355 -112.00956 1189 ft 0 kts 112°
2026-05-04 13:17 33.43359 -112.00921 1185 ft 10 kts 85°
2026-05-04 13:17 33.43359 -112.00844 1182 ft 10 kts 93°
2026-05-04 13:17 33.43326 -112.00761 1184 ft 11 kts 143°
2026-05-04 13:17 33.43285 -112.00635 1186 ft 23 kts 88°
2026-05-04 13:18 33.43285 -112.00435 1183 ft 25 kts 91°
2026-05-04 13:18 33.43284 -112.00225 1183 ft 26 kts 90°
2026-05-04 13:18 33.43284 -112.00004 1183 ft 27 kts 90°
2026-05-04 13:18 33.43285 -111.99774 1186 ft 28 kts 89°
2026-05-04 13:19 33.43284 -111.99536 1183 ft 29 kts 91°
2026-05-04 13:19 33.43262 -111.99359 1187 ft 16 kts 142°
2026-05-04 13:19 33.43153 -111.99339 1188 ft 15 kts 182°
2026-05-04 13:19 33.43102 -111.99416 1190 ft 14 kts 266°
2026-05-04 13:20 33.43105 -111.99668 1185 ft 62 kts 271°
2026-05-04 13:20 33.43104 -112.00450 1183 ft 124 kts 270°
2026-05-04 13:20 33.43106 -112.01684 1218 ft 168 kts 270°
2026-05-04 13:20 33.43093 -112.03065 1886 ft 165 kts 266°
2026-05-04 13:21 33.43029 -112.04444 2490 ft 170 kts 261°
2026-05-04 13:21 33.42941 -112.05941 2826 ft 191 kts 262°
2026-05-04 13:21 33.42812 -112.07641 3080 ft 214 kts 254°
2026-05-04 13:21 33.42286 -112.09373 3430 ft 237 kts 246°
2026-05-04 13:22 33.41658 -112.11292 3943 ft 255 kts 246°
2026-05-04 13:22 33.41020 -112.13296 4835 ft 260 kts 247°
2026-05-04 13:22 33.40377 -112.15348 5656 ft 266 kts 247°
2026-05-04 13:22 33.39595 -112.17347 6552 ft 265 kts 230°
2026-05-04 13:23 33.38118 -112.18604 7399 ft 265 kts 197°
2026-05-04 13:23 33.36272 -112.18707 8268 ft 271 kts 173°
2026-05-04 13:23 33.34435 -112.18130 9218 ft 276 kts 164°
2026-05-04 13:23 33.32622 -112.17316 10152 ft 280 kts 162°
2026-05-04 13:24 33.30740 -112.16438 10592 ft 301 kts 163°
2026-05-04 13:24 33.28699 -112.15575 10940 ft 317 kts 170°
2026-05-04 13:24 33.26515 -112.15474 11509 ft 316 kts 195°
2026-05-04 13:25 33.23145 -112.18553 13086 ft 317 kts 243°
2026-05-04 13:25 33.22575 -112.21097 13881 ft 322 kts 263°
2026-05-04 13:25 33.22392 -112.23768 14571 ft 322 kts 258°
2026-05-04 13:25 33.21811 -112.26336 15289 ft 321 kts 246°
2026-05-04 13:26 33.20714 -112.28657 15980 ft 323 kts 235°
2026-05-04 13:26 33.19360 -112.30806 16662 ft 325 kts 234°
2026-05-04 13:26 33.17978 -112.32953 17321 ft 327 kts 234°
2026-05-04 13:26 33.16578 -112.35114 17956 ft 330 kts 234°
2026-05-04 13:27 33.15168 -112.37289 18530 ft 332 kts 234°
2026-05-04 13:27 33.13751 -112.39472 19111 ft 334 kts 234°
2026-05-04 13:27 33.12329 -112.41666 19682 ft 334 kts 234°
2026-05-04 13:27 33.10906 -112.43863 20276 ft 335 kts 234°
2026-05-04 13:28 33.09482 -112.46063 20866 ft 335 kts 234°
2026-05-04 13:28 33.08054 -112.48268 21430 ft 336 kts 234°
2026-05-04 13:28 33.06623 -112.50475 21980 ft 337 kts 234°
2026-05-04 13:28 33.05186 -112.52689 22546 ft 338 kts 234°
2026-05-04 13:29 33.03744 -112.54913 23094 ft 340 kts 234°
2026-05-04 13:29 33.02293 -112.57150 23612 ft 341 kts 234°
2026-05-04 13:29 33.00836 -112.59394 24043 ft 343 kts 234°
2026-05-04 13:29 32.99377 -112.61644 24469 ft 344 kts 235°
2026-05-04 13:30 32.97910 -112.63904 24897 ft 345 kts 235°
2026-05-04 13:30 32.96522 -112.66229 25306 ft 344 kts 242°
2026-05-04 13:30 32.95555 -112.68834 25719 ft 345 kts 252°
2026-05-04 13:30 32.95065 -112.71641 26113 ft 348 kts 259°
2026-05-04 13:31 32.94694 -112.74491 26516 ft 349 kts 259°
2026-05-04 13:31 32.94316 -112.77351 26912 ft 350 kts 259°
2026-05-04 13:31 32.93932 -112.80221 27295 ft 352 kts 258°
2026-05-04 13:31 32.93544 -112.83101 27662 ft 354 kts 258°
2026-05-04 13:32 32.93149 -112.86000 28044 ft 355 kts 258°
2026-05-04 13:32 32.92750 -112.88907 28403 ft 357 kts 258°
2026-05-04 13:32 32.92350 -112.91823 28782 ft 358 kts 258°
2026-05-04 13:32 32.91950 -112.94752 29150 ft 359 kts 258°
2026-05-04 13:33 32.91548 -112.97693 29507 ft 361 kts 258°
2026-05-04 13:33 32.91145 -113.00645 29832 ft 362 kts 259°
2026-05-04 13:33 32.90362 -113.06416 29905 ft 339 kts 258°
2026-05-04 13:34 32.89619 -113.11870 29901 ft 332 kts 258°
2026-05-04 13:34 32.88873 -113.17293 29898 ft 332 kts 258°
2026-05-04 13:35 32.87752 -113.25427 29892 ft 332 kts 258°
2026-05-04 13:36 32.86997 -113.30846 29891 ft 332 kts 257°
2026-05-04 13:36 32.86233 -113.36255 29886 ft 332 kts 257°
2026-05-04 13:37 32.85477 -113.41664 29871 ft 331 kts 258°
2026-05-04 13:37 32.84723 -113.47073 29856 ft 332 kts 257°
2026-05-04 13:38 32.83962 -113.52491 29855 ft 332 kts 257°
2026-05-04 13:38 32.83203 -113.57881 29886 ft 333 kts 257°
2026-05-04 13:39 32.82431 -113.63316 29889 ft 333 kts 257°
2026-05-04 13:39 32.81657 -113.68745 29887 ft 333 kts 257°
2026-05-04 13:40 32.80886 -113.74171 29887 ft 333 kts 257°
2026-05-04 13:40 32.80114 -113.79601 29885 ft 333 kts 257°
2026-05-04 13:41 32.79329 -113.85064 29885 ft 333 kts 257°
2026-05-04 13:41 32.78548 -113.90494 29884 ft 333 kts 257°
2026-05-04 13:42 32.77563 -113.98638 29881 ft 337 kts 264°
2026-05-04 13:42 32.77512 -114.04202 29878 ft 337 kts 264°
2026-05-04 13:43 32.77517 -114.09776 29887 ft 338 kts 266°
2026-05-04 13:43 32.77763 -114.15369 29884 ft 339 kts 267°
2026-05-04 13:44 32.78044 -114.20965 29882 ft 339 kts 266°
2026-05-04 13:44 32.78282 -114.26552 29876 ft 338 kts 266°
2026-05-04 13:45 32.78497 -114.32137 29938 ft 338 kts 266°
2026-05-04 13:45 32.78732 -114.37714 29949 ft 339 kts 270°
2026-05-04 13:46 32.79749 -114.42292 29959 ft 349 kts 279°
2026-05-04 13:46 32.81275 -114.47771 29945 ft 349 kts 279°
2026-05-04 13:47 32.82778 -114.53254 29932 ft 349 kts 278°
2026-05-04 13:47 32.84273 -114.58736 29929 ft 348 kts 278°
2026-05-04 13:48 32.85776 -114.64214 29937 ft 349 kts 278°
2026-05-04 13:48 32.87280 -114.69695 29930 ft 348 kts 278°
2026-05-04 13:49 32.87893 -114.75232 29926 ft 332 kts 262°
2026-05-04 13:49 32.87755 -114.80728 29920 ft 333 kts 262°
2026-05-04 13:50 32.87626 -114.86232 29920 ft 333 kts 263°
2026-05-04 13:50 32.87509 -114.91739 29917 ft 333 kts 263°
2026-05-04 13:51 32.87393 -114.97246 29918 ft 333 kts 263°
2026-05-04 13:51 32.87265 -115.02751 29927 ft 333 kts 262°
2026-05-04 13:52 32.87069 -115.11007 29853 ft 331 kts 262°
2026-05-04 13:52 32.87005 -115.13708 29579 ft 322 kts 262°
2026-05-04 13:53 32.86941 -115.16363 29308 ft 319 kts 262°
2026-05-04 13:53 32.86876 -115.18990 29040 ft 317 kts 262°
2026-05-04 13:53 32.86809 -115.21600 28775 ft 315 kts 262°
2026-05-04 13:54 32.86675 -115.26797 28246 ft 313 kts 262°
2026-05-04 13:54 32.86608 -115.29378 27987 ft 312 kts 262°
2026-05-04 13:54 32.86427 -115.34512 27483 ft 307 kts 256°
2026-05-04 13:55 32.86082 -115.37008 27234 ft 305 kts 255°
2026-05-04 13:55 32.85379 -115.41975 26742 ft 304 kts 255°
2026-05-04 13:55 32.85030 -115.44448 26499 ft 303 kts 255°
2026-05-04 13:56 32.84687 -115.46902 26228 ft 298 kts 255°
2026-05-04 13:56 32.84349 -115.49313 25850 ft 294 kts 255°
2026-05-04 13:56 32.83592 -115.54114 25133 ft 297 kts 253°
2026-05-04 13:57 32.83192 -115.56515 24748 ft 295 kts 253°
2026-05-04 13:57 32.82793 -115.58903 24391 ft 294 kts 253°
2026-05-04 13:58 32.81617 -115.66017 23329 ft 290 kts 253°
2026-05-04 13:58 32.80846 -115.70689 22605 ft 287 kts 254°
2026-05-04 13:58 32.80465 -115.73009 22265 ft 286 kts 254°
2026-05-04 13:59 32.80084 -115.75327 21921 ft 285 kts 254°
2026-05-04 13:59 32.79703 -115.77636 21580 ft 284 kts 255°
2026-05-04 13:59 32.78942 -115.82235 20895 ft 283 kts 255°
2026-05-04 14:00 32.78565 -115.84525 20554 ft 283 kts 256°
2026-05-04 14:00 32.78192 -115.89198 19872 ft 283 kts 260°
2026-05-04 14:00 32.78021 -115.91527 19531 ft 283 kts 261°
2026-05-04 14:01 32.77851 -115.93849 19192 ft 282 kts 261°
2026-05-04 14:01 32.77680 -115.96172 18836 ft 282 kts 261°
2026-05-04 14:01 32.77327 -116.00829 18160 ft 283 kts 262°
2026-05-04 14:02 32.77151 -116.03155 17802 ft 282 kts 261°
2026-05-04 14:02 32.76976 -116.05477 17459 ft 282 kts 262°
2026-05-04 14:02 32.76799 -116.07793 17116 ft 281 kts 262°
2026-05-04 14:02 32.76623 -116.10103 16766 ft 280 kts 261°
2026-05-04 14:03 32.76447 -116.12406 16436 ft 280 kts 262°
2026-05-04 14:03 32.76271 -116.14700 16118 ft 279 kts 261°
2026-05-04 14:03 32.76095 -116.16989 15782 ft 278 kts 261°
2026-05-04 14:03 32.75921 -116.19270 15455 ft 277 kts 262°
2026-05-04 14:04 32.75569 -116.23824 14784 ft 276 kts 262°
2026-05-04 14:04 32.75394 -116.26091 14483 ft 275 kts 262°
2026-05-04 14:04 32.75221 -116.28348 14142 ft 273 kts 261°
2026-05-04 14:05 32.74881 -116.32815 13455 ft 270 kts 261°
2026-05-04 14:05 32.74709 -116.35020 13129 ft 266 kts 261°
2026-05-04 14:05 32.74536 -116.37204 12809 ft 265 kts 261°
2026-05-04 14:06 32.74366 -116.39371 12522 ft 263 kts 261°
2026-05-04 14:06 32.74197 -116.41535 12201 ft 262 kts 261°
2026-05-04 14:06 32.74028 -116.43689 11887 ft 261 kts 261°
2026-05-04 14:06 32.73858 -116.45833 11572 ft 260 kts 262°
2026-05-04 14:07 32.73690 -116.47972 11258 ft 259 kts 261°
2026-05-04 14:07 32.73521 -116.50094 10948 ft 257 kts 262°
2026-05-04 14:07 32.73339 -116.52201 10642 ft 256 kts 261°
2026-05-04 14:07 32.73140 -116.54297 10312 ft 255 kts 261°
2026-05-04 14:08 32.72936 -116.56389 9985 ft 255 kts 260°
2026-05-04 14:08 32.72729 -116.58479 9637 ft 255 kts 261°
2026-05-04 14:08 32.72519 -116.60575 9296 ft 256 kts 262°
2026-05-04 14:08 32.72311 -116.62675 8973 ft 256 kts 262°
2026-05-04 14:09 32.71907 -116.66856 8326 ft 257 kts 263°
2026-05-04 14:09 32.71735 -116.68966 8005 ft 257 kts 264°
2026-05-04 14:10 32.71424 -116.73112 7360 ft 248 kts 264°
2026-05-04 14:10 32.71270 -116.75141 7045 ft 244 kts 264°
2026-05-04 14:10 32.71118 -116.77101 6741 ft 233 kts 265°
2026-05-04 14:10 32.70969 -116.78984 6447 ft 226 kts 265°
2026-05-04 14:11 32.70827 -116.80814 6139 ft 220 kts 265°
2026-05-04 14:11 32.69983 -116.84274 5605 ft 219 kts 250°
2026-05-04 14:11 32.69454 -116.85960 5331 ft 218 kts 251°
2026-05-04 14:12 32.68971 -116.87655 5070 ft 217 kts 259°
2026-05-04 14:12 32.68887 -116.89438 4813 ft 217 kts 274°
2026-05-04 14:12 32.69103 -116.93007 4287 ft 215 kts 274°
2026-05-04 14:13 32.69202 -116.94767 4031 ft 213 kts 274°
2026-05-04 14:13 32.69299 -116.96527 3774 ft 213 kts 274°
2026-05-04 14:13 32.69394 -116.98248 3521 ft 205 kts 274°
2026-05-04 14:13 32.69486 -116.99910 3278 ft 198 kts 274°
2026-05-04 14:14 32.69576 -117.01492 3063 ft 185 kts 275°
2026-05-04 14:14 32.69782 -117.04283 2623 ft 156 kts 286°
2026-05-04 14:14 32.70080 -117.05480 2450 ft 147 kts 287°
2026-05-04 14:15 32.70637 -117.07765 2075 ft 142 kts 286°
2026-05-04 14:15 32.71183 -117.10010 1649 ft 144 kts 286°
2026-05-04 14:16 32.71756 -117.12345 1182 ft 150 kts 285°
2026-05-04 14:16 32.72050 -117.13538 924 ft 151 kts 285°
2026-05-04 14:17 32.72619 -117.15913 470 ft 149 kts 284°
2026-05-04 14:17 32.72897 -117.17098 234 ft 148 kts 285°
2026-05-04 14:17 32.73406 -117.19207 24 ft 87 kts 286°
2026-05-04 14:18 32.73522 -117.19682 30 ft 50 kts 286°
2026-05-04 14:18 32.73625 -117.20173 26 ft 13 kts 248°
2026-05-04 14:19 32.73589 -117.20191 27 ft 4 kts 186°
2026-05-04 14:19 32.73538 -117.20145 27 ft 11 kts 112°
2026-05-04 14:19 32.73503 -117.19997 26 ft 23 kts 105°
2026-05-04 14:19 32.73470 -117.19865 28 ft 10 kts 106°
2026-05-04 14:20 32.73438 -117.19739 27 ft 22 kts 107°
2026-05-04 14:20 32.73400 -117.19578 27 ft 19 kts 107°
2026-05-04 14:20 32.73338 -117.19466 27 ft 16 kts 175°
2026-05-04 14:21 32.73247 -117.19364 24 ft 7 kts 191°
2026-05-04 14:21 32.73221 -117.19373 24 ft 0 kts 197°